LPPTLPPD

Guest
Details From LPPT - Lisboa
To LPPD - Ponta Delgada
Flight Number -
Tags Generated
Created
Modified
Stats Distance 783 nm / 1,450 km
Max Altitude 0 ft / 0 m
Waypoints 3
Social Downloads 22
Likes 0
Share VATSIM

Download

Looking for another format? Having issues loading an existing format? Contact us
Advertisement - Login to hide

Notes

Generated

Route

LPPT MGL LPPD

ID Type Via Altitude Latitude Longitude Leg Dist Tot Dist Heading (true) Name
O LPPT APT - 0 ft / 0 m 38.78624˚ -9.13721˚ - 0 nm - -
MGL NDB - 0 ft / 0 m 37.74139˚ -25.58389˚ 777 nm 777 nm 271° / 260° PONTA DELGADA NDB
O LPPD APT - 0 ft / 0 m 37.74624˚ -25.71090˚ 6 nm 783 nm 273° / 273° -

Altitude Profile

Advertisement - Login to hide

Weather


0- 5 10 15 20 25 30 35+ Temperature / ° C

Clouds and Precipitation
Forecast for 2018-05-21 06:00 UTC. Updated 2 hours ago

Ground ~20,000 ft ~40,000 ft Winds

LPPT

Details ICAO LPPT (LIS)
Name Lisboa
Region Portugal
Timezone Europe/Lisbon (UTC+1.0)
Stats Elevation 374 ft / 114 m (AMSL)
Location 38.778559° -9.135146°
Runways 2
Magnetic Variation 2.310° W

METAR

LPPT 210700Z VRB02KT 9999 FEW012 13/11 Q1012

Decode

TAF

TAF LPPT 210500Z 2106/2212 VRB03KT 9999 SCT010 TEMPO 2106/2108 BKN008 BECMG 2109/2112 23010KT SCT025 BECMG 2119/2122 VRB03KT SCT015 BECMG 2203/2205 16008KT TEMPO 2203/2209 BKN015 BECMG 2209/2211 FEW030

Decode

Departure Runways

ID Width Length Bearing (true) Bearing (mag) Surface Threshold Offset Overrun Length
03 148 ft / 45 m 12,518 ft / 3,815 m 22.70° 25.01° Asphalt 296 ft / 90 m 0 ft / 0 m
17 148 ft / 45 m 7,922 ft / 2,415 m 168.38° 170.69° Asphalt 0 ft / 0 m 0 ft / 0 m
21 148 ft / 45 m 12,518 ft / 3,815 m 202.72° 205.03° Asphalt 1,969 ft / 600 m 0 ft / 0 m
35 148 ft / 45 m 7,922 ft / 2,415 m 348.38° 350.69° Asphalt 492 ft / 150 m 0 ft / 0 m

LPPD

Details ICAO LPPD (PDL)
Name PONTA DELGADA
Region Portugal
Timezone Atlantic/Azores (UTC+0.0)
Stats Elevation 259 ft / 79 m (AMSL)
Location 37.742078° -25.697736°
Runways 1
Magnetic Variation 8.301° W

METAR

LPPD 210700Z 02018KT 9999 BKN015 15/12 Q1021

Decode

TAF

TAF LPPD 210500Z 2106/2206 01017KT 9999 SCT015 SCT040 TEMPO 2106/2120 02020G32KT PROB30 TEMPO 2106/2112 5000 SHRA SCT006 BKN015 BECMG 2112/2114 FEW025 TEMPO 2114/2206 FEW018 BKN030 BECMG 2122/2201 01008KT

Decode

Destination Runways

ID Width Length Bearing (true) Bearing (mag) Surface Threshold Offset Overrun Length
12 148 ft / 45 m 8,179 ft / 2,493 m 111.77° 120.07° Asphalt 0 ft / 0 m 375 ft / 114 m
30 148 ft / 45 m 8,179 ft / 2,493 m 291.79° 300.09° Asphalt 787 ft / 240 m 0 ft / 0 m

Approach Navaids

Runway Type Ident Frequency Range Bearing (true) Bearing (mag) Slope Elevation
30 Localiser NL 109.50 MHz 18 nm / 33 km 291.78° 300.08° - 259 ft / 79 m (AMSL)
30 Glidescope NL 109.50 MHz 10 nm / 19 km 291.78° 300.08° 3.00° 259 ft / 79 m (AMSL)
30 DME NL 109.50 MHz 18 nm / 33 km - - - 259 ft / 79 m (AMSL)

Popular Alternatives